Torna al catalogo

COSMOS 1698

AttivoNavigazioneHEO
NORAD 16183·PAYLOAD·🇷🇺 Russia

Lanciato Oct 22, 1985 da Plesetsk Cosmodrome

Loading…

Prossimi Passaggi (prossime 24 ore)

TLE

AggiornatoSource: Space-Track

Epoca: Sep 12, 2026, 09:19 UTC

1 16183U 85098A   26255.38836056 -.00000159  00000-0  00000-0 0  9994
2 16183  71.4628 101.0864 5091213 346.3149 221.2235  2.00830956299493

Traccia COSMOS 1698 in tempo reale con AllMySat

Download on the App Store